Starlink 31984

operational
NORAD ID: 60018 Int'l Des: 2024-111 Owner: SPXS Country: US Constellation: starlink
LEOCIRCULAR

About Starlink 31984

Description loading...

Live Position

Loading 3D Globe...

Upcoming Passes

Altitude History

Altitude vs Time

uPlot chart will show altitude changes over time

Two-Line Element Set

1 60018U 24111C 25306.27741721 .00001466 00000-0 61629-4 0 9996
2 60018 53.1610 307.6187 0001491 88.5155 271.6017 15.30186120 79379
Epoch: Nov 2, 2025 • Age: 20 hours

Current Status

Altitude 475.1 km
Velocity 7.63 km/s
Sub-Earth Point 17.01°N, 35.69°E
Launch Date Jun 8, 2024
Age 1.4 years
Type internet

Technical Details

Classification Payload
Mass 730.00 kg
Dry Mass 700.00 kg
Total Mass 730.00 kg
Length 0.30 m
Diameter 4.10 m
Span 29.00 m
Shape Box + pan
Manufacturer SPXS
Bus Type Starlink V2M
Phase Status In Orbit
Owner/State SPXS/US

Large Constellations

Loading constellations...